Regional Weather Roundup
Issued by NWS

Home | Current Version | Previous Version | Text Only | Print | Product List | Glossary On
Versions: 1 2 3 4 5 6 7 8 9 10 11 12 13 14 15 16 17 18 19 20 21 22 23 24 25 26 27 28 29 30 31 32 33 34 35 36 37 38 39 40 41 42 43 44 45 46 47 48 49 50
000
ASUS44 KMEG 271410
RWRTN
TENNESSEE HOURLY STATE WEATHER ROUNDUP
NATIONAL WEATHER SERVICE MEMPHIS TN
800 AM CST TUE JAN 27 2015

TNZ002-004-019-021-049-052-054-088>092-271500-
WEST TENNESSEE

CITY           SKY/WX    TMP DP  RH WIND       PRES   REMARKS
MEMPHIS INTL   CLEAR     45  36  70 N10       30.08R
NWS MEMPHIS      N/A     42 N/A N/A MISG        N/A
JACKSON        SUNNY     37  32  82 NW7       30.06R WCI  32
DYERSBURG      CLEAR     37  25  60 N8        30.09R WCI  31
UNION CITY     CLEAR     34  34 100 N8        30.06R WCI  27
PARIS          MOSUNNY   30  28  93 N5        30.05R WCI  25
LEXINGTON      SUNNY     37  32  81 NW7       30.01R WCI  32
SAVANNAH       MOSUNNY   32  32 100 CALM      30.04R
$$

TNZ008-025-027-028-033-062-065-066-271500-
NORTH MIDDLE TENNESSEE

CITY           SKY/WX    TMP DP  RH WIND       PRES   REMARKS
NASHVILLE      PTSUNNY   36  31  82 NW8       30.00R WCI  30
CLARKSVILLE    CLOUDY    36  32  85 NW10      30.02R WCI  28
SMYRNA         CLOUDY    31  30  96 CALM      30.01R FOG
COOKEVILLE     CLOUDY    34  32  93 CALM      29.94R
CROSSVILLE     CLOUDY    32  29  88 N7        29.91R WCI  26
$$

TNZ061-075-076-078-094-096-097-271500-
SOUTH MIDDLE TENNESSEE

CITY           SKY/WX    TMP DP  RH WIND       PRES   REMARKS
FAYETTEVILLE   SUNNY     36  30  80 N15       29.96R WCI  26
TULLAHOMA      SUNNY     34  28  80 NW8       29.96R WCI  27
WINCHESTER     MOSUNNY   36  30  80 NW6       29.96R WCI  31
MCMINNVILLE    CLOUDY    34  34 100 CALM      29.96R
COLUMBIA       SUNNY     37  37 100 NW5       29.98R WCI  34
SHELBYVILLE    SUNNY     34  32  93 NW7       29.98R WCI  28
$$

TNZ017-018-042-046-047-271500-
NORTHEAST TENNESSEE

CITY           SKY/WX    TMP DP  RH WIND       PRES   REMARKS
TRI CITIES     CLOUDY    30  24  78 N3        29.90R
ELIZABETHTON   CLOUDY    27  19  74 VRB3      29.89R
$$

TNZ012-013-036-069-073-074-271500-
CENTRAL EAST TENNESSEE

CITY           SKY/WX    TMP DP  RH WIND       PRES   REMARKS
KNOXVILLE      FLURRIES  31  30  96 SW6       29.94R WCI  25
OAK RIDGE      CLOUDY    33  31  92 CALM      29.95R
GATLINBURG     CLOUDY    28  28 100 N3        29.93R
MORRISTOWN     PTSUNNY   30  30 100 W3        29.92R
$$

TNZ083-085-099-271500-
SOUTHEAST TENNESSEE

CITY           SKY/WX    TMP DP  RH WIND       PRES   REMARKS
CHATTANOOGA    PTSUNNY   37  32  82 E3        29.95R
$$

SKY/WX REPORTED AS FAIR MEANS FEW OR NO CLOUDS BELOW
12 THOUSAND FEET.



USA.gov is the U.S. government's official web portal to all federal, state and local government web resources and services.